Temp
-8 -8 -8 -8 -8 -7 -8 -8 -7 -7 -7 -8 -7 -7 -7 -7 -7 -7 -7 -7 -8 -7 -7 -7 -8 -7 -7 -7 -7 -7 -7 -7 -7 -7 -7 -7 -7 -6 -6 -6 -6 -6 -7
-8 -8 -8 -8 -8 -8 -8 -8 -8 -8 -8 -8 -8 -8 -7 -7 -7 -8 -8 -7 -8 -7 -7 -7 -7 -7 -7 -7 -7 -7 -7 -7 -7 -7 -7 -7 -7 -7 -6 -7 -7 -6 -6
-9 -9 -8 -8 -8 -8 -8 -8 -8 -8 -7 -7 -8 -8 -8 -7 -7 -7 -8 -8 -8 -8 -7 -8 -7 -7 -7 -7 -7 -8 -8 -7 -8 -8 -8 -7 -8 -8 -8 -7 -7 -7 -7
-9 -9 -9 -9 -9 -8 -8 -8 -8 -8 -8 -7 -7 -7 -7 -7 -8 -8 -7 -8 -8 -8 -8 -8 -8 -8 -7 -7 -7 -7 -8 -8 -7 -8 -8 -8 -7 -7 -7 -8 -7 -7 -7
-8 -9 -9 -9 -9 -9 -9 -8 -8 -8 -8 -8 -7 -7 -7 -7 -8 -7 -7 -8 -8 -8 -8 -8 -8 -8 -8 -8 -7 -7 -7 -7 -7 -7 -8 -8 -8 -8 -8 -7 -7 -8 -8
-9 -8 -9 -9 -9 -9 -9 -9 -8 -8 -8 -8 -8 -8 -8 -8 -8 -8 -8 -8 -8 -8 -8 -8 -8 -8 -8 -8 -7 -8 -8 -7 -7 -7 -7 -7 -8 -8 -8 -7 -7 -7 -7
-9 -9 -8 -8 -8 -8 -9 -9 -9 -9 -9 -9 -9 -9 -9 -8 -8 -8 -7 -7 -7 -8 -8 -8 -8 -8 -8 -8 -7 -8 -8 -8 -7 -7 -8 -7 -7 -7 -7 -7 -7 -6 -7
-9 -8 -6 -9 -8 -9 -9 -9 -9 -9 -9 -9 -9 -9 -8 -8 -8 -8 -8 -7 -7 -8 -8 -8 -8 -8 -8 -8 -8 -8 -8 -8 -7 -7 -7 -7 -7 -7 -7 -6 -6 -6 -6
-8 -9 -8 -9 -8 -7 -8 -8 -9 -9 -9 -9 -8 -8 -8 -9 -8 -8 -8 -8 -8 -8 -8 -8 -8 -7 -8 -8 -8 -7 -7 -7 -7 -7 -7 -7 -7 -6 -6 -6 -6 -5 -5
-9 -9 -8 -8 -8 -8 -8 -9 -9 -9 -8 -8 -9 -8 -8 -8 -9 -9 -8 -8 -8 -8 -8 -8 -8 -7 -8 -8 -7 -7 -7 -7 -7 -7 -6 -6 -6 -6 -5 -5 -5 -5 -5
-9 -9 -9 -9 -9 -9 -9 -9 -9 -9 -9 -8 -9 -8 -8 -9 -9 -9 -9 -8 -7 -8 -8 -8 -7 -7 -7 -7 -7 -7 -7 -7 -7 -7 -6 -5 -5 -5 -5 -5 -5 -5 -5
-10 -10 -9 -9 -9 -9 -9 -9 -9 -9 -9 -8 -9 -9 -8 -8 -8 -8 -7 -7 -8 -8 -8 -7 -7 -7 -7 -7 -7 -7 -7 -7 -7 -6 -5 -5 -5 -5 -5 -5 -5 -5 -5
-10 -10 -10 -10 -10 -10 -9 -9 -9 -9 -9 -9 -8 -9 -9 -8 -8 -7 -7 -7 -7 -7 -7 -7 -7 -7 -7 -7 -7 -7 -7 -7 -6 -6 -5 -5 -5 -5 -5 -5 -5 -5 -6
-10 -10 -10 -10 -10 -10 -10 -10 -10 -9 -9 -9 -9 -9 -8 -8 -8 -7 -7 -7 -7 -7 -7 -7 -7 -7 -7 -7 -7 -7 -7 -6 -6 -6 -5 -6 -5 -5 -5 -6 -6 -6 -6
-10 -10 -10 -10 -10 -10 -10 -10 -10 -10 -10 -9 -9 -9 -8 -8 -8 -8 -7 -7 -7 -7 -7 -7 -7 -7 -7 -7 -7 -7 -6 -6 -6 -6 -6 -6 -6 -6 -6 -6 -6 -7 -7
-10 -10 -10 -10 -10 -8 -9 -9 -10 -10 -10 -9 -9 -9 -8 -8 -8 -8 -8 -7 -7 -7 -7 -7 -7 -7 -7 -7 -7 -7 -6 -6 -6 -6 -6 -6 -6 -6 -7 -7 -7 -8 -8
-10 -10 -10 -10 -10 -9 -9 -9 -10 -10 -10 -10 -9 -9 -9 -8 -8 -8 -8 -8 -8 -8 -7 -8 -8 -7 -7 -7 -7 -7 -6 -6 -6 -7 -7 -7 -7 -7 -7 -7 -8 -8 -8
-11 -11 -10 -10 -10 -10 -10 -11 -10 -9 -10 -10 -10 -9 -9 -9 -8 -8 -8 -8 -8 -8 -7 -7 -7 -7 -7 -7 -7 -6 -6 -7 -7 -7 -7 -7 -7 -8 -8 -8 -8 -8 -8
-10 -10 -10 -10 -9 -10 -10 -11 -11 -9 -9 -11 -11 -10 -9 -9 -8 -8 -8 -8 -8 -8 -8 -8 -8 -8 -8 -7 -7 -7 -7 -7 -7 -7 -8 -8 -8 -8 -8 -8 -9 -9 -9
-10 -10 -10 -9 -9 -10 -9 -9 -11 -9 -9 -10 -11 -11 -10 -9 -9 -9 -8 -8 -8 -8 -8 -8 -8 -8 -8 -8 -8 -8 -8 -8 -8 -8 -8 -9 -9 -9 -9 -9 -9 -9 -9
-10 -10 -10 -9 -9 -9 -10 -10 -9 -10 -9 -10 -11 -10 -10 -10 -9 -9 -8 -8 -8 -8 -8 -8 -8 -8 -8 -8 -8 -8 -8 -8 -8 -9 -9 -10 -10 -10 -10 -10 -10 -10 -10
-9 -9 -8 -8 -8 -9 -9 -9 -9 -10 -8 -10 -10 -10 -10 -10 -10 -9 -8 -8 -8 -8 -8 -8 -8 -8 -8 -8 -8 -9 -9 -9 -9 -10 -10 -10 -10 -10 -10 -10 -10 -10 -10
-9 -9 -9 -8 -8 -8 -8 -9 -8 -9 -9 -10 -10 -10 -9 -10 -9 -9 -8 -8 -8 -8 -8 -8 -8 -8 -9 -9 -9 -9 -10 -10 -10 -10 -10 -10 -10 -11 -11 -11 -11 -11 -11
-9 -9 -9 -7 -8 -8 -9 -9 -9 -9 -10 -10 -9 -9 -9 -10 -9 -9 -9 -9 -9 -9 -8 -9 -9 -9 -9 -9 -10 -10 -10 -10 -10 -10 -10 -11 -11 -11 -11 -11 -11 -11 -11
-9 -10 -8 -7 -8 -8 -9 -10 -10 -10 -11 -10 -9 -9 -10 -9 -9 -9 -9 -9 -9 -9 -9 -9 -9 -10 -10 -10 -10 -10 -11 -11 -11 -11 -11 -11 -11 -11 -12 -12 -12 -12 -12
-9 -10 -10 -9 -9 -9 -10 -11 -10 -11 -10 -9 -10 -10 -9 -9 -9 -9 -9 -9 -9 -9 -9 -10 -10 -10 -10 -10 -10 -10 -11 -11 -11 -11 -11 -11 -11 -12 -12 -12 -12 -12 -12
Height
5870 5872 5873 5874 5876 5879 5880 5882 5884 5887 5889 5891 5893 5896 5898 5900 5902 5902 5904 5905 5907 5908 5909 5911 5912 5914 5913 5914 5916 5918 5919 5921 5921 5922 5921 5920 5918 5918 5918 5918 5917 5917 5916
5867 5868 5870 5871 5873 5875 5875 5878 5880 5883 5886 5888 5890 5893 5895 5898 5899 5898 5899 5901 5902 5904 5905 5906 5907 5908 5909 5909 5911 5913 5914 5916 5916 5916 5916 5915 5913 5913 5913 5913 5912 5911 5911
5863 5866 5867 5868 5869 5870 5871 5873 5876 5878 5881 5884 5886 5888 5890 5892 5894 5894 5895 5897 5898 5898 5899 5901 5902 5905 5905 5906 5907 5908 5908 5910 5910 5910 5909 5909 5908 5907 5907 5906 5905 5905 5904
5862 5863 5865 5866 5867 5868 5869 5869 5871 5872 5874 5877 5879 5882 5883 5886 5888 5889 5891 5893 5894 5894 5895 5895 5897 5899 5900 5901 5901 5902 5903 5904 5904 5904 5903 5902 5901 5900 5900 5899 5899 5898 5896
5857 5860 5859 5859 5861 5864 5866 5866 5866 5866 5868 5870 5873 5876 5878 5880 5882 5884 5886 5887 5888 5889 5889 5890 5891 5892 5893 5893 5894 5894 5895 5896 5896 5896 5896 5895 5894 5892 5891 5891 5892 5889 5889
5849 5852 5851 5851 5857 5857 5858 5863 5864 5863 5864 5867 5869 5871 5873 5875 5877 5877 5879 5879 5880 5882 5883 5885 5886 5886 5886 5887 5886 5886 5886 5886 5886 5885 5885 5886 5885 5883 5882 5882 5881 5881 5881
5846 5846 5845 5844 5848 5847 5851 5857 5861 5863 5864 5866 5867 5868 5870 5871 5872 5872 5871 5873 5874 5875 5878 5878 5880 5879 5879 5878 5876 5878 5878 5876 5875 5875 5877 5877 5876 5874 5874 5873 5871 5870 5870
5839 5839 5823 5841 5838 5839 5850 5851 5854 5857 5859 5861 5862 5864 5866 5867 5868 5866 5864 5867 5867 5868 5870 5872 5873 5872 5873 5873 5873 5873 5872 5872 5871 5871 5871 5869 5868 5867 5866 5865 5863 5861 5860
5832 5833 5821 5815 5838 5841 5843 5845 5848 5853 5856 5857 5858 5859 5860 5861 5863 5864 5863 5862 5863 5864 5867 5868 5868 5867 5867 5867 5868 5868 5868 5867 5867 5866 5865 5863 5862 5860 5858 5856 5853 5851 5850
5826 5824 5825 5825 5828 5831 5834 5837 5843 5847 5849 5850 5852 5854 5855 5857 5857 5860 5861 5862 5861 5861 5862 5863 5864 5865 5864 5864 5865 5864 5863 5863 5861 5860 5859 5857 5855 5852 5850 5848 5845 5842 5840
5816 5818 5817 5818 5820 5823 5827 5831 5835 5837 5839 5841 5844 5846 5849 5851 5851 5854 5857 5857 5857 5858 5858 5860 5860 5860 5860 5860 5859 5858 5857 5856 5854 5852 5851 5849 5847 5845 5843 5840 5837 5835 5832
5807 5812 5813 5815 5815 5817 5820 5823 5827 5829 5831 5834 5836 5838 5841 5843 5847 5849 5850 5852 5852 5853 5854 5855 5856 5856 5855 5854 5854 5853 5851 5848 5846 5845 5844 5842 5841 5839 5836 5834 5831 5829 5826
5798 5803 5807 5809 5812 5811 5813 5815 5817 5820 5822 5826 5830 5831 5833 5837 5840 5842 5844 5846 5848 5848 5849 5849 5850 5850 5850 5849 5848 5846 5843 5841 5839 5838 5837 5836 5834 5832 5830 5828 5826 5824 5822
5789 5793 5799 5801 5803 5805 5807 5809 5811 5812 5815 5819 5822 5825 5829 5831 5833 5835 5838 5840 5841 5842 5842 5842 5843 5843 5843 5842 5841 5838 5835 5834 5833 5832 5831 5829 5827 5826 5824 5823 5821 5819 5816
5778 5782 5788 5791 5794 5796 5800 5800 5802 5805 5807 5810 5814 5818 5822 5824 5827 5829 5830 5832 5834 5835 5835 5836 5836 5836 5835 5834 5833 5829 5827 5827 5826 5825 5824 5823 5822 5821 5820 5818 5816 5813 5811
5769 5774 5777 5777 5778 5780 5784 5785 5791 5796 5799 5803 5806 5810 5814 5817 5820 5822 5823 5825 5827 5828 5829 5828 5827 5827 5826 5825 5824 5822 5820 5820 5819 5819 5818 5817 5816 5815 5813 5812 5811 5809 5806
5759 5763 5767 5767 5767 5756 5776 5781 5783 5787 5791 5795 5800 5804 5808 5812 5814 5816 5817 5819 5820 5821 5821 5820 5819 5818 5817 5817 5816 5814 5813 5813 5812 5811 5811 5811 5810 5809 5808 5807 5805 5803 5800
5749 5753 5755 5761 5764 5766 5774 5777 5780 5781 5784 5788 5792 5796 5801 5804 5806 5808 5810 5811 5811 5811 5812 5811 5811 5810 5809 5808 5807 5806 5806 5806 5806 5805 5805 5805 5804 5804 5802 5801 5799 5797 5794
5738 5742 5746 5751 5755 5759 5767 5771 5775 5775 5775 5779 5783 5788 5792 5795 5798 5800 5801 5802 5803 5803 5803 5802 5801 5800 5800 5800 5799 5798 5799 5800 5800 5799 5799 5798 5798 5797 5796 5795 5793 5791 5788
5726 5731 5738 5742 5745 5752 5757 5762 5767 5768 5766 5770 5775 5781 5786 5789 5791 5794 5795 5795 5795 5795 5794 5792 5791 5791 5791 5791 5791 5792 5792 5793 5793 5792 5792 5791 5792 5791 5790 5788 5787 5784 5781
5713 5719 5725 5731 5737 5741 5748 5752 5758 5763 5759 5763 5767 5774 5778 5781 5785 5788 5789 5788 5787 5786 5786 5785 5784 5785 5783 5784 5785 5785 5785 5785 5785 5786 5786 5785 5784 5783 5782 5781 5779 5777 5775
5701 5708 5712 5718 5723 5728 5733 5738 5744 5751 5754 5757 5761 5767 5770 5773 5777 5781 5783 5781 5780 5780 5778 5777 5777 5776 5776 5777 5777 5777 5778 5778 5778 5778 5778 5777 5776 5775 5774 5772 5770 5768 5766
5690 5698 5702 5705 5707 5711 5717 5724 5732 5743 5749 5750 5753 5759 5762 5765 5770 5774 5774 5772 5772 5772 5771 5770 5769 5771 5772 5771 5772 5772 5772 5772 5772 5771 5770 5769 5768 5767 5765 5764 5762 5760 5757
5680 5686 5685 5689 5692 5694 5704 5714 5727 5736 5740 5741 5745 5750 5754 5759 5762 5765 5764 5764 5764 5764 5763 5764 5764 5765 5765 5764 5765 5764 5764 5764 5763 5763 5762 5761 5759 5758 5758 5756 5752 5750 5747
5672 5677 5676 5675 5684 5689 5700 5711 5721 5728 5731 5735 5737 5742 5748 5752 5755 5756 5756 5755 5756 5756 5756 5757 5756 5757 5757 5757 5757 5757 5758 5758 5758 5757 5756 5754 5752 5750 5747 5744 5741 5738 5735
5665 5669 5672 5673 5680 5688 5699 5707 5714 5720 5724 5726 5728 5733 5740 5745 5746 5745 5746 5746 5747 5747 5747 5748 5749 5749 5750 5749 5749 5749 5749 5748 5747 5746 5745 5743 5741 5738 5734 5732 5729 5726 5724
Wind_Speed
21 20 18 18 17 17 18 18 19 20 19 18 18 18 18 17 16 16 15 13 15 16 16 16 16 16 17 21 22 20 18 17 18 20 21 22 23 23 22 22 24 25 24
18 20 21 19 19 20 21 20 20 21 21 21 20 19 18 18 18 17 17 14 16 16 17 16 15 16 16 15 21 22 20 20 20 21 21 23 24 24 24 25 27 27 27
15 19 20 20 19 21 23 22 22 22 22 22 23 22 21 19 18 18 17 16 15 16 18 18 17 16 16 13 15 18 19 19 19 20 23 23 24 25 26 27 29 29 30
15 17 17 19 22 20 20 23 23 23 24 22 23 23 19 18 19 19 18 18 18 17 17 17 18 18 19 17 16 17 19 20 21 22 24 26 27 28 27 29 30 32 33
14 15 18 23 22 21 25 23 23 25 26 24 21 19 18 19 20 19 20 19 19 18 18 19 20 19 20 20 20 20 22 23 23 23 24 27 28 29 30 29 28 34 34
17 18 22 24 26 19 22 26 22 24 26 23 21 20 17 18 18 20 22 23 22 19 20 21 23 23 22 22 22 24 25 25 25 25 26 27 28 32 32 31 31 31 31
17 17 26 26 27 24 22 22 19 22 22 23 23 20 20 21 22 25 26 30 25 21 22 22 23 24 24 25 27 23 27 29 30 29 23 26 25 29 30 31 33 32 29
22 18 23 25 28 19 23 20 24 26 26 27 27 28 22 23 24 27 29 24 21 18 21 24 22 25 23 20 20 22 22 23 24 23 24 26 27 29 30 31 33 33 32
25 20 30 12 29 26 23 23 21 22 21 25 25 27 23 24 25 27 26 24 18 19 20 20 19 17 17 18 16 20 22 23 25 27 28 30 31 32 34 34 36 36 35
27 27 25 27 23 21 22 23 25 23 23 22 23 21 24 27 30 27 25 23 22 22 21 20 18 16 17 19 20 22 24 26 28 29 30 31 32 32 33 32 32 33 34
31 30 26 26 21 18 18 17 17 18 18 16 19 22 23 21 18 19 25 25 22 22 21 19 19 20 21 21 23 25 29 33 34 35 33 30 31 31 30 30 30 30 26
29 29 25 23 21 18 16 16 17 16 16 18 20 21 25 27 22 23 24 24 22 22 22 22 22 23 24 25 26 29 33 35 33 32 31 30 29 28 28 25 23 21 20
32 34 29 24 20 17 16 17 16 18 19 18 20 23 21 22 26 24 23 24 24 24 25 25 26 26 27 29 30 31 32 28 28 28 29 27 26 24 22 19 17 17 19
34 37 33 28 25 23 21 23 22 19 20 21 24 20 21 25 27 24 25 26 26 27 26 27 27 27 30 32 31 31 27 26 25 25 23 24 23 20 18 15 13 15 18
40 42 37 36 33 27 27 27 24 23 22 22 23 26 29 29 27 26 26 25 26 26 24 25 27 29 31 32 31 29 26 25 23 22 22 20 19 17 14 12 13 15 17
43 38 39 46 46 42 37 33 28 24 22 21 21 23 26 26 26 27 25 25 25 25 27 29 31 33 33 32 30 28 26 25 22 22 21 19 17 16 15 13 14 15 16
42 45 44 44 51 39 36 38 27 24 22 22 22 23 25 26 27 28 27 27 28 30 32 34 34 32 31 30 30 28 26 24 23 22 20 19 18 17 16 16 16 16 16
49 50 51 44 44 43 41 41 32 29 26 22 23 26 28 27 27 28 28 30 32 34 34 33 33 32 30 29 29 28 27 25 24 23 21 20 19 18 17 17 17 17 17
50 48 45 42 44 43 36 39 37 36 30 26 25 27 30 30 30 32 31 29 28 30 31 31 30 30 29 29 28 25 25 25 23 22 20 20 21 20 19 19 19 20 21
43 46 46 44 45 43 44 36 42 39 35 31 27 26 27 29 31 32 30 29 28 29 30 29 29 29 27 26 23 24 23 22 21 21 21 21 21 21 22 22 23 23 23
48 45 44 46 45 45 37 31 43 46 37 35 30 28 26 27 31 36 34 32 31 27 26 27 28 27 25 23 22 21 20 21 20 20 21 21 22 23 24 24 25 26 27
41 43 43 43 46 43 39 39 42 54 43 38 28 27 29 28 30 33 35 31 27 27 25 27 27 23 22 21 21 21 21 22 22 21 22 23 25 25 25 26 27 28 29
32 31 35 37 36 40 42 38 41 48 44 31 26 29 29 31 31 34 34 28 24 25 26 24 23 24 23 21 22 22 23 25 26 26 25 25 26 27 28 29 30 32 33
29 28 31 31 31 43 33 36 38 41 37 28 29 29 30 32 35 34 32 29 27 25 25 24 24 25 26 26 26 25 26 26 27 27 28 29 29 29 30 31 31 32 33
23 13 22 29 54 45 37 40 37 37 33 34 36 37 34 32 34 32 30 27 30 30 28 27 29 30 30 31 31 31 30 31 32 32 33 35 34 33 34 35 37 37 38
18 10 12 31 42 46 43 38 37 32 27 26 23 29 31 28 24 25 23 25 27 27 29 30 32 34 35 35 35 35 36 36 37 37 38 39 40 41 43 43 44 44 44
Wind_Direction
235 228 230 235 230 231 233 229 222 222 225 226 228 227 228 235 232 235 246 231 240 243 242 247 251 257 254 244 241 243 246 248 247 252 264 270 273 277 279 279 277 279 276
241 233 231 233 236 241 233 231 225 223 227 231 232 232 233 235 235 235 234 245 242 245 252 254 258 261 261 245 239 241 245 251 255 259 261 267 269 272 273 273 274 272 269
255 253 242 242 234 234 229 231 229 225 224 229 233 232 234 238 242 244 251 241 250 254 251 253 256 256 256 242 248 251 252 256 255 258 264 267 269 271 271 270 271 272 273
257 264 256 252 243 243 244 240 237 238 230 228 231 234 234 238 240 243 244 247 252 257 260 252 257 258 261 259 252 253 256 258 258 258 261 265 267 268 269 271 273 275 276
265 257 265 254 252 251 253 249 249 245 243 233 230 235 241 243 242 238 242 245 251 252 253 258 260 261 264 266 266 266 267 267 268 267 268 271 276 274 274 274 278 274 274
260 261 261 268 239 251 260 257 260 246 232 231 229 232 242 250 255 248 242 242 240 245 254 258 262 266 267 271 274 273 276 274 274 274 275 280 278 278 279 282 283 285 276
251 238 257 266 258 237 253 243 252 246 238 236 237 238 247 253 250 250 245 249 244 246 256 259 262 263 266 270 270 281 280 284 284 287 290 286 287 284 285 285 285 289 289
255 237 237 246 270 265 249 250 260 248 241 243 247 249 254 263 256 255 261 258 250 255 262 269 268 267 263 266 277 275 280 287 290 290 290 291 292 291 291 289 288 288 288
248 239 258 238 246 245 245 246 256 249 267 269 263 249 253 268 267 268 272 284 281 272 274 275 275 284 277 264 276 280 283 287 290 293 293 293 292 292 292 293 294 296 295
250 238 235 242 237 239 238 241 248 258 267 273 269 259 259 263 268 264 271 273 270 273 273 269 266 274 276 282 284 286 291 295 295 295 295 296 296 296 297 298 297 298 299
247 235 234 238 234 236 244 250 251 249 247 258 258 260 261 258 266 260 267 271 269 267 262 258 263 272 278 283 288 293 296 296 296 296 298 298 298 300 300 300 302 302 302
238 233 230 225 222 220 224 233 242 246 247 244 249 251 249 253 247 258 258 263 260 258 257 259 266 273 279 281 285 290 294 295 292 290 292 296 297 299 299 298 301 306 312
237 231 229 231 234 233 237 242 243 245 246 246 243 257 243 223 247 254 258 261 260 259 259 263 268 273 277 282 286 291 295 291 289 289 293 296 298 298 297 299 302 312 319
229 231 232 233 236 241 244 249 248 245 246 242 234 234 229 246 250 250 254 259 261 260 261 264 269 274 279 282 288 295 291 290 288 290 291 294 295 297 298 301 312 324 328
228 228 230 232 236 232 237 238 238 241 239 242 243 247 255 252 248 247 251 255 258 258 258 262 268 275 280 283 290 290 286 284 285 285 288 289 290 289 286 292 309 320 326
224 231 238 235 230 226 225 225 228 230 233 238 243 244 246 245 244 248 251 250 250 253 258 264 270 276 280 283 287 283 278 280 277 277 280 280 281 281 283 291 304 309 316
231 238 245 254 257 251 231 229 221 221 224 229 237 243 245 246 247 248 249 251 254 258 264 270 275 277 280 281 282 279 273 275 275 276 276 276 277 277 279 287 296 305 311
239 243 247 252 259 266 259 282 222 221 219 228 234 239 243 243 245 249 251 254 259 264 271 272 272 273 276 278 279 276 272 273 272 273 273 273 272 273 278 284 292 299 305
236 239 246 250 248 255 272 279 223 219 218 225 232 236 241 245 248 250 252 254 260 265 268 271 273 273 275 276 275 269 268 269 272 273 271 268 267 272 277 283 287 292 296
241 241 243 245 251 262 272 267 224 224 219 224 233 242 249 253 254 253 252 254 260 269 272 270 268 268 270 271 265 264 266 270 269 267 265 268 274 277 279 282 284 287 290
240 241 244 246 246 260 254 246 251 237 225 229 230 239 249 255 258 259 256 254 260 267 272 273 271 272 265 257 254 259 264 265 265 267 271 273 273 275 280 283 285 287 288
234 238 244 248 248 252 244 254 252 228 233 233 231 241 243 250 253 255 257 257 263 268 271 273 273 259 254 252 255 260 261 261 263 267 271 274 277 278 277 278 281 285 287
235 233 237 247 249 253 240 234 227 228 237 232 235 247 248 248 255 260 257 254 263 272 275 271 265 258 253 254 258 261 263 268 272 272 273 274 275 278 281 283 287 290 292
231 241 248 250 233 209 207 209 223 230 233 236 238 248 242 244 251 256 254 257 266 271 274 266 258 255 257 259 260 259 262 267 270 272 273 274 275 279 286 291 294 294 294
226 235 229 216 190 207 210 211 222 230 230 248 243 245 239 246 251 252 251 260 265 267 271 263 257 255 254 257 261 266 270 277 281 281 280 280 283 287 287 289 291 293 294
207 208 217 193 194 201 208 208 220 226 241 248 231 220 226 232 241 250 257 261 265 267 268 266 261 259 259 261 261 265 269 272 276 280 284 284 283 283 284 286 289 292 293